Location: Asheville, NC
(35.6000°N, 82.5500°W)
Time: 00:12:56
(UTC-04:00)

Vanguard 1 - Pass Details

Date: 17 March 2018
Orbit: 650 x 3833 km, 34.3° (Epoch: 22 June)

Event Time Altitude Azimuth Distance (km) Brightness Sun altitude
Rises 09:09:53 0° 239° (WSW) 6,618 13.9 17.6°
Reaches altitude 10° 09:13:42 10° 237° (WSW) 5,922 13.7 18.4°
Maximum altitude 09:34:16 73° 157° (SSE) 3,913 13.7 22.4°
Drops below altitude 10° 09:56:54 10° 79° (E) 6,419 15.2 26.7°
Sets 10:01:14 0° 78° (ENE) 7,168 15.3 27.5°
